INMARSAT GX5 (44801 NORAD) Tracking and Keplerian Element Data

This shows tracking and keplerian element data for the satellite.

Feedback or suggestion? Click here.




ElementValue
Catalog44801
NameINMARSAT GX5
Epoch Orbit60
Epoch Day17.60481112
Epoch Year2020
RAAN144.8028
Inclination0.0447
Eccentricity0.0002072
Argument of Perigee207.8627
Mean Anonmoly65.3317
Mean Motion1.00273129
Decay Rate-1.77E-06
L11 44801U 19080B 20017.60481112 -.00000177 00000-0 00000-0 0 9994
L22 44801 0.0447 144.8028 0002072 207.8627 65.3317 1.00273129 600

Live tracking and technical data element details for INMARSAT GX5 (NORAD 44801). INMARSAT GX5 can be tracked NOW for your location showing map with azimuth and elevation plus other details from your city location.

Track the satellite on the map from your city or location and see movement details for azimuth, elevation, latitude, longitude, range, height, and movement on the map or in text.







IsCatalogInMostPopularTable: catalog: 44801, numindb: 8
Update: records affected: 1



GetName: 44801 INMARSAT GX5

Hit Count: updated at: Sat, 18 Jan 2020 17:18:24 GMT